• In Netherlands
  • List of Countries
  • For 7 days
  • Water Temperature
  • Satellite Maps
  • Weather Map
  • Weather Widgets
  • user-avatar
    Login

    Hourly Weather Batina

    Today, 28 February, Tuesday

    Time Temperature Precipitation Wind Pressure Humidity
    00:00 +5°C° 0 mm 2 mps 669 mmHg 66%
    01:00 +5°C° 0 mm 2 mps 669 mmHg 66%
    02:00 +5°C° 0 mm 2 mps 669 mmHg 67%
    03:00 +5°C° 0 mm 2 mps 668 mmHg 67%
    04:00 +5°C° 0 mm 2 mps 668 mmHg 68%
    05:00 +4°C° 0 mm 2 mps 668 mmHg 69%
    06:00 +4°C° 0 mm 2 mps 668 mmHg 70%
    07:00 +7°C° 0 mm 2 mps 669 mmHg 60%
    08:00 +9°C° 0 mm 2 mps 670 mmHg 50%
    09:00 +12°C° 0 mm 3 mps 671 mmHg 39%
    10:00 +13°C° 0 mm 3 mps 671 mmHg 35%
    11:00 +15°C° 0 mm 4 mps 671 mmHg 31%
    12:00 +17°C° 0 mm 4 mps 671 mmHg 26%
    13:00 +17°C° 0 mm 4 mps 671 mmHg 26%
    14:00 +17°C° 0 mm 4 mps 671 mmHg 26%
    15:00 +17°C° 0 mm 4 mps 670 mmHg 25%
    16:00 +14°C° 0 mm 3 mps 670 mmHg 32%
    17:00 +12°C° 0 mm 3 mps 669 mmHg 38%
    18:00 +9°C° 0 mm 2 mps 669 mmHg 45%
    19:00 +9°C° 0 mm 2 mps 669 mmHg 48%
    20:00 +8°C° 0 mm 2 mps 669 mmHg 50%
    21:00 +7°C° 0 mm 2 mps 669 mmHg 53%
    22:00 +7°C° 0 mm 2 mps 669 mmHg 55%
    23:00 +7°C° 0 mm 2 mps 669 mmHg 57%

    Tomorrow, 1 March, Wednesday

    Time Temperature Precipitation Wind Pressure Humidity
    00:00 +7°C° 0 mm 2 mps 670 mmHg 58%
    01:00 +7°C° 0 mm 1 mps 669 mmHg 63%
    02:00 +6°C° 0 mm 1 mps 669 mmHg 67%
    03:00 +6°C° 0 mm 1 mps 669 mmHg 71%
    04:00 +5°C° 0 mm 1 mps 669 mmHg 73%
    05:00 +5°C° 0 mm 1 mps 669 mmHg 75%
    06:00 +5°C° 0 mm 1 mps 669 mmHg 77%
    07:00 +7°C° 0 mm 1 mps 670 mmHg 67%
    08:00 +10°C° 0 mm 1 mps 672 mmHg 58%
    09:00 +13°C° 0 mm 1 mps 673 mmHg 48%
    10:00 +14°C° 0 mm 2 mps 673 mmHg 44%
    11:00 +15°C° 0 mm 2 mps 673 mmHg 39%
    12:00 +17°C° 0 mm 2 mps 674 mmHg 34%
    13:00 +17°C° 0 mm 2 mps 674 mmHg 33%
    14:00 +17°C° 0 mm 2 mps 673 mmHg 33%
    15:00 +17°C° 0 mm 2 mps 673 mmHg 32%
    16:00 +15°C° 0 mm 2 mps 673 mmHg 40%
    17:00 +13°C° 0 mm 2 mps 673 mmHg 49%
    18:00 +10°C° 0 mm 2 mps 672 mmHg 57%
    19:00 +10°C° 0 mm 1 mps 672 mmHg 61%
    20:00 +9°C° 0 mm 1 mps 672 mmHg 65%
    21:00 +8°C° 0 mm 1 mps 673 mmHg 69%
    22:00 +8°C° 0 mm 1 mps 672 mmHg 68%
    23:00 +8°C° 0 mm 1 mps 672 mmHg 67%

    Day after tomorrow, 2 March, Thursday

    Time Temperature Precipitation Wind Pressure Humidity
    00:00 +7°C° 0 mm 1 mps 672 mmHg 66%
    01:00 +7°C° 0 mm 1 mps 672 mmHg 64%
    02:00 +7°C° 0 mm 1 mps 672 mmHg 62%
    03:00 +7°C° 0 mm 1 mps 671 mmHg 60%
    04:00 +7°C° 0 mm 1 mps 671 mmHg 59%
    05:00 +5°C° 0 mm 2 mps 671 mmHg 59%
    06:00 +5°C° 0 mm 2 mps 671 mmHg 58%
    07:00 +8°C° 0 mm 2 mps 672 mmHg 51%
    08:00 +12°C° 0 mm 2 mps 673 mmHg 43%
    09:00 +13°C° 0 mm 3 mps 674 mmHg 36%
    10:00 +16°C° 0 mm 3 mps 674 mmHg 32%
    11:00 +17°C° 0 mm 3 mps 674 mmHg 29%
    12:00 +18°C° 0 mm 3 mps 674 mmHg 25%
    13:00 +18°C° 0 mm 3 mps 674 mmHg 25%
    14:00 +19°C° 0 mm 3 mps 673 mmHg 25%
    15:00 +19°C° 0 mm 3 mps 673 mmHg 25%
    16:00 +16°C° 0 mm 3 mps 672 mmHg 32%
    17:00 +14°C° 0 mm 2 mps 672 mmHg 39%
    18:00 +12°C° 0 mm 2 mps 671 mmHg 45%
    19:00 +10°C° 0 mm 2 mps 671 mmHg 49%
    20:00 +9°C° 0 mm 2 mps 671 mmHg 53%
    21:00 +9°C° 0 mm 2 mps 671 mmHg 56%
    22:00 +8°C° 0 mm 2 mps 671 mmHg 56%
    23:00 +8°C° 0 mm 2 mps 670 mmHg 56%

    3 March, Friday

    Time Temperature Precipitation Wind Pressure Humidity
    00:00 +8°C° 0 mm 2 mps 670 mmHg 56%
    01:00 +8°C° 0 mm 2 mps 670 mmHg 56%
    02:00 +8°C° 0 mm 2 mps 669 mmHg 56%
    03:00 +7°C° 0 mm 2 mps 669 mmHg 55%
    04:00 +7°C° 0 mm 2 mps 669 mmHg 54%
    05:00 +7°C° 0 mm 2 mps 669 mmHg 53%
    06:00 +7°C° 0 mm 2 mps 669 mmHg 51%
    07:00 +10°C° 0 mm 3 mps 669 mmHg 44%
    08:00 +13°C° 0 mm 4 mps 670 mmHg 37%
    09:00 +15°C° 0 mm 5 mps 671 mmHg 29%
    10:00 +16°C° 0 mm 5 mps 671 mmHg 27%
    11:00 +17°C° 0 mm 6 mps 671 mmHg 25%
    12:00 +20°C° 0 mm 6 mps 670 mmHg 23%
    13:00 +19°C° 0 mm 6 mps 670 mmHg 23%
    14:00 +19°C° 0 mm 6 mps 669 mmHg 24%
    15:00 +19°C° 0 mm 6 mps 668 mmHg 24%
    16:00 +16°C° 0 mm 5 mps 668 mmHg 28%
    17:00 +14°C° 0 mm 4 mps 667 mmHg 32%
    18:00 +12°C° 0 mm 3 mps 667 mmHg 36%
    19:00 +12°C° 0 mm 4 mps 667 mmHg 37%
    20:00 +11°C° 0 mm 4 mps 667 mmHg 37%
    21:00 +11°C° 0 mm 4 mps 667 mmHg 38%
    22:00 +11°C° 0 mm 4 mps 667 mmHg 38%
    23:00 +10°C° 0 mm 4 mps 667 mmHg 38%

    4 March, Saturday

    Time Temperature Precipitation Wind Pressure Humidity
    00:00 +10°C° 0 mm 4 mps 667 mmHg 39%
    01:00 +10°C° 0 mm 3 mps 667 mmHg 40%
    02:00 +9°C° 0 mm 3 mps 666 mmHg 41%
    03:00 +9°C° 0 mm 3 mps 666 mmHg 43%
    04:00 +8°C° 0 mm 2 mps 666 mmHg 44%
    05:00 +8°C° 0 mm 2 mps 666 mmHg 44%
    06:00 +7°C° 0 mm 2 mps 666 mmHg 45%
    07:00 +10°C° 0 mm 2 mps 667 mmHg 39%
    08:00 +12°C° 0 mm 3 mps 667 mmHg 33%
    09:00 +16°C° 0 mm 3 mps 668 mmHg 27%
    10:00 +17°C° 0 mm 4 mps 668 mmHg 25%
    11:00 +17°C° 0 mm 5 mps 668 mmHg 23%
    12:00 +20°C° 0 mm 6 mps 668 mmHg 21%
    13:00 +19°C° 0 mm 6 mps 667 mmHg 22%
    14:00 +18°C° 0 mm 7 mps 667 mmHg 22%
    15:00 +18°C° 0 mm 7 mps 666 mmHg 23%
    16:00 +16°C° 0 mm 6 mps 666 mmHg 28%
    17:00 +14°C° 0 mm 5 mps 665 mmHg 34%
    18:00 +13°C° 0 mm 4 mps 665 mmHg 39%
    19:00 +12°C° 0.1 mm 4 mps 665 mmHg 44%
    20:00 +12°C° 0.1 mm 3 mps 665 mmHg 50%
    21:00 +11°C° 0.1 mm 3 mps 664 mmHg 55%
    22:00 +11°C° 0.1 mm 3 mps 664 mmHg 56%
    23:00 +10°C° 0.1 mm 4 mps 664 mmHg 57%

    5 March, Sunday

    Time Temperature Precipitation Wind Pressure Humidity
    00:00 +10°C° 0.1 mm 4 mps 664 mmHg 58%
    01:00 +9°C° 0.4 mm 3 mps 663 mmHg 61%
    02:00 +9°C° 0.4 mm 3 mps 663 mmHg 65%
    03:00 +9°C° 0.4 mm 2 mps 663 mmHg 68%
    04:00 +8°C° 0.1 mm 2 mps 663 mmHg 69%
    05:00 +8°C° 0.1 mm 2 mps 664 mmHg 71%
    06:00 +8°C° 0.1 mm 1 mps 664 mmHg 73%
    07:00 +8°C° 0.4 mm 2 mps 665 mmHg 72%
    08:00 +9°C° 0.4 mm 3 mps 666 mmHg 72%
    09:00 +8°C° 0.4 mm 4 mps 667 mmHg 71%
    10:00 +8°C° 0.5 mm 4 mps 667 mmHg 72%
    11:00 +8°C° 0.5 mm 4 mps 667 mmHg 72%
    12:00 +8°C° 0.5 mm 5 mps 667 mmHg 73%
    13:00 +9°C° 0.1 mm 5 mps 668 mmHg 72%
    14:00 +9°C° 0.1 mm 5 mps 668 mmHg 71%
    15:00 +9°C° 0.1 mm 5 mps 668 mmHg 69%
    16:00 +8°C° 0 mm 4 mps 668 mmHg 73%
    17:00 +7°C° 0 mm 4 mps 668 mmHg 77%
    18:00 +7°C° 0 mm 3 mps 669 mmHg 81%
    19:00 +5°C° 0 mm 3 mps 669 mmHg 82%
    20:00 +4°C° 0 mm 3 mps 669 mmHg 84%
    21:00 +4°C° 0 mm 3 mps 670 mmHg 85%
    22:00 +4°C° 0 mm 3 mps 670 mmHg 82%
    23:00 +5°C° 0 mm 2 mps 670 mmHg 78%
    Show more